Find Starlink 32584

NORAD ID: 62179 Int'l Des: 2024-225 Owner: SPXS Country: US Constellation: starlink operational
LEOCIRCULAR

リアルタイム位置

3D地球を読み込み中...

Starlink 32584について

説明を読み込み中...

次回通過

Passes for default location (London). Set your location on the main map for personalized predictions.

高度履歴

Loading altitude history...

軌道要素

1 62179U 24225S 26125.82367926 .00002767 00000-0 23954-3 0 9997
2 62179 70.0020 20.3174 0002487 269.1077 90.9797 14.98337634 78437
Epoch: May 5, 2026 • Age: 12 hours

現在のステータス

高度 578.1 km
速度 7.58 km/s
衛星直下点 39.36°N, 156.32°W
打ち上げ日 Nov 30, 2024
運用期間 1.4 years
タイプ internet

技術仕様

分類 Payload
質量 730.00 kg
乾燥質量 700.00 kg
総質量 730.00 kg
長さ 0.30 m
直径 4.10 m
スパン 29.00 m
形状 Box + pan
製造者 SPXS
バスタイプ Starlink V2M
フェーズステータス In Orbit
所有者/国 SPXS/US

Most Searched